• In Netherlands
  • List of Countries
  • For 7 days
  • Water Temperature
  • Satellite Maps
  • Weather Map
  • Weather Widgets
  • user-avatar
    Login

    Hourly Weather Neuquén

    Today, 25 May, Friday

    Time Temperature Precipitation Wind Pressure Humidity
    00:00 +13°C° 0 mm 1 mps 734 mmHg 34%
    01:00 +13°C° 0 mm 1 mps 734 mmHg 36%
    02:00 +12°C° 0 mm 1 mps 734 mmHg 36%
    03:00 +12°C° 0 mm 1 mps 733 mmHg 36%
    04:00 +11°C° 0 mm 0 mps 733 mmHg 37%
    05:00 +12°C° 0 mm 1 mps 733 mmHg 36%
    06:00 +12°C° 0 mm 2 mps 733 mmHg 36%
    07:00 +12°C° 0 mm 2 mps 733 mmHg 35%
    08:00 +14°C° 0 mm 2 mps 733 mmHg 33%
    09:00 +16°C° 0 mm 3 mps 732 mmHg 31%
    10:00 +18°C° 0 mm 3 mps 732 mmHg 30%
    11:00 +19°C° 0 mm 3 mps 732 mmHg 29%
    12:00 +21°C° 0 mm 4 mps 731 mmHg 29%
    13:00 +22°C° 0 mm 4 mps 731 mmHg 28%
    14:00 +21°C° 0 mm 4 mps 730 mmHg 30%
    15:00 +20°C° 0 mm 3 mps 729 mmHg 33%
    16:00 +20°C° 0 mm 3 mps 729 mmHg 35%
    17:00 +19°C° 0 mm 3 mps 728 mmHg 37%
    18:00 +18°C° 0 mm 3 mps 728 mmHg 40%
    19:00 +17°C° 0 mm 4 mps 728 mmHg 42%
    20:00 +15°C° 0 mm 4 mps 728 mmHg 45%
    21:00 +16°C° 0 mm 3 mps 728 mmHg 47%
    22:00 +14°C° 0 mm 3 mps 728 mmHg 50%
    23:00 +14°C° 0 mm 3 mps 728 mmHg 48%

    Tomorrow, 26 May, Saturday

    Time Temperature Precipitation Wind Pressure Humidity
    00:00 +14°C° 0 mm 3 mps 728 mmHg 47%
    01:00 +13°C° 0 mm 3 mps 728 mmHg 45%
    02:00 +13°C° 0 mm 3 mps 728 mmHg 43%
    03:00 +13°C° 0 mm 3 mps 728 mmHg 41%
    04:00 +13°C° 0 mm 4 mps 728 mmHg 39%
    05:00 +12°C° 0 mm 4 mps 728 mmHg 38%
    06:00 +12°C° 0 mm 3 mps 728 mmHg 38%
    07:00 +12°C° 0 mm 3 mps 728 mmHg 37%
    08:00 +13°C° 0 mm 5 mps 729 mmHg 38%
    09:00 +15°C° 0 mm 7 mps 729 mmHg 38%
    10:00 +16°C° 0 mm 9 mps 730 mmHg 38%
    11:00 +16°C° 0.1 mm 8 mps 730 mmHg 39%
    12:00 +16°C° 0.1 mm 8 mps 730 mmHg 39%
    13:00 +16°C° 0.1 mm 8 mps 731 mmHg 39%
    14:00 +16°C° 0 mm 7 mps 731 mmHg 37%
    15:00 +16°C° 0 mm 6 mps 731 mmHg 34%
    16:00 +16°C° 0 mm 6 mps 731 mmHg 32%
    17:00 +15°C° 0 mm 6 mps 732 mmHg 35%
    18:00 +14°C° 0 mm 6 mps 733 mmHg 38%
    19:00 +11°C° 0 mm 6 mps 734 mmHg 41%
    20:00 +12°C° 0 mm 5 mps 734 mmHg 44%
    21:00 +10°C° 0 mm 5 mps 735 mmHg 47%
    22:00 +10°C° 0 mm 4 mps 736 mmHg 50%
    23:00 +10°C° 0 mm 4 mps 736 mmHg 51%

    Day after tomorrow, 27 May, Sunday

    Time Temperature Precipitation Wind Pressure Humidity
    00:00 +10°C° 0 mm 3 mps 736 mmHg 52%
    01:00 +9°C° 0 mm 2 mps 736 mmHg 54%
    02:00 +9°C° 0 mm 2 mps 736 mmHg 55%
    03:00 +10°C° 0 mm 1 mps 736 mmHg 56%
    04:00 +9°C° 0 mm 1 mps 736 mmHg 57%
    05:00 +9°C° 0 mm 1 mps 736 mmHg 56%
    06:00 +9°C° 0 mm 2 mps 736 mmHg 55%
    07:00 +9°C° 0 mm 2 mps 736 mmHg 54%
    08:00 +10°C° 0 mm 3 mps 736 mmHg 48%
    09:00 +12°C° 0 mm 4 mps 735 mmHg 42%
    10:00 +13°C° 0 mm 5 mps 735 mmHg 36%
    11:00 +14°C° 0 mm 5 mps 734 mmHg 36%
    12:00 +16°C° 0 mm 6 mps 733 mmHg 35%
    13:00 +17°C° 0 mm 7 mps 732 mmHg 35%
    14:00 +16°C° 0 mm 6 mps 732 mmHg 36%
    15:00 +16°C° 0 mm 5 mps 731 mmHg 38%
    16:00 +17°C° 0 mm 4 mps 730 mmHg 39%
    17:00 +15°C° 0 mm 4 mps 730 mmHg 43%
    18:00 +15°C° 0 mm 4 mps 730 mmHg 46%
    19:00 +14°C° 0 mm 4 mps 730 mmHg 49%
    20:00 +14°C° 0 mm 4 mps 729 mmHg 54%
    21:00 +13°C° 0 mm 4 mps 729 mmHg 59%
    22:00 +13°C° 0 mm 4 mps 729 mmHg 63%
    23:00 +13°C° 0 mm 4 mps 728 mmHg 69%

    28 May, Monday

    Time Temperature Precipitation Wind Pressure Humidity
    00:00 +12°C° 0 mm 4 mps 728 mmHg 75%
    01:00 +12°C° 0 mm 4 mps 727 mmHg 80%
    02:00 +12°C° 0 mm 3 mps 726 mmHg 83%
    03:00 +13°C° 0 mm 2 mps 726 mmHg 85%
    04:00 +12°C° 0 mm 2 mps 725 mmHg 88%
    05:00 +12°C° 0 mm 2 mps 725 mmHg 87%
    06:00 +12°C° 0 mm 2 mps 725 mmHg 87%
    07:00 +12°C° 0 mm 2 mps 724 mmHg 87%
    08:00 +13°C° 0 mm 2 mps 724 mmHg 79%
    09:00 +14°C° 0 mm 3 mps 724 mmHg 72%
    10:00 +15°C° 0 mm 4 mps 724 mmHg 64%
    11:00 +17°C° 0 mm 4 mps 723 mmHg 58%
    12:00 +18°C° 0 mm 4 mps 722 mmHg 51%
    13:00 +19°C° 0 mm 4 mps 721 mmHg 44%
    14:00 +19°C° 0 mm 4 mps 722 mmHg 44%
    15:00 +18°C° 0 mm 4 mps 722 mmHg 45%
    16:00 +17°C° 0 mm 5 mps 722 mmHg 45%
    17:00 +17°C° 0 mm 6 mps 723 mmHg 42%
    18:00 +16°C° 0 mm 8 mps 724 mmHg 40%
    19:00 +16°C° 0 mm 9 mps 725 mmHg 38%
    20:00 +14°C° 0 mm 10 mps 726 mmHg 39%
    21:00 +13°C° 0 mm 12 mps 727 mmHg 40%
    22:00 +12°C° 0 mm 13 mps 728 mmHg 41%
    23:00 +10°C° 0 mm 12 mps 728 mmHg 43%

    29 May, Tuesday

    Time Temperature Precipitation Wind Pressure Humidity
    00:00 +11°C° 0 mm 11 mps 729 mmHg 44%
    01:00 +9°C° 0 mm 10 mps 729 mmHg 45%
    02:00 +10°C° 0 mm 9 mps 729 mmHg 47%
    03:00 +9°C° 0 mm 7 mps 730 mmHg 49%
    04:00 +9°C° 0 mm 6 mps 730 mmHg 51%
    05:00 +9°C° 0 mm 5 mps 730 mmHg 53%
    06:00 +8°C° 0 mm 4 mps 731 mmHg 55%
    07:00 +9°C° 0 mm 3 mps 731 mmHg 57%
    08:00 +10°C° 0 mm 5 mps 732 mmHg 49%
    09:00 +11°C° 0 mm 7 mps 732 mmHg 42%
    10:00 +13°C° 0 mm 9 mps 733 mmHg 34%
    11:00 +15°C° 0 mm 9 mps 732 mmHg 30%
    12:00 +16°C° 0 mm 9 mps 732 mmHg 26%
    13:00 +17°C° 0 mm 10 mps 732 mmHg 22%
    14:00 +16°C° 0 mm 9 mps 733 mmHg 24%
    15:00 +16°C° 0 mm 9 mps 733 mmHg 26%
    16:00 +15°C° 0 mm 8 mps 733 mmHg 28%
    17:00 +14°C° 0 mm 7 mps 734 mmHg 31%
    18:00 +13°C° 0 mm 6 mps 734 mmHg 34%
    19:00 +12°C° 0 mm 5 mps 734 mmHg 37%
    20:00 +10°C° 0 mm 5 mps 735 mmHg 40%
    21:00 +11°C° 0 mm 4 mps 735 mmHg 43%
    22:00 +10°C° 0 mm 4 mps 735 mmHg 46%
    23:00 +8°C° 0 mm 4 mps 735 mmHg 49%

    30 May, Wednesday

    Time Temperature Precipitation Wind Pressure Humidity
    00:00 +8°C° 0 mm 4 mps 735 mmHg 51%
    01:00 +7°C° 0 mm 4 mps 735 mmHg 53%
    02:00 +7°C° 0 mm 4 mps 735 mmHg 53%
    03:00 +7°C° 0 mm 4 mps 735 mmHg 54%
    04:00 +6°C° 0 mm 4 mps 734 mmHg 54%
    05:00 +6°C° 0 mm 5 mps 734 mmHg 53%
    06:00 +6°C° 0 mm 5 mps 734 mmHg 51%
    07:00 +6°C° 0 mm 5 mps 734 mmHg 50%
    08:00 +8°C° 0 mm 6 mps 734 mmHg 44%
    09:00 +10°C° 0 mm 8 mps 734 mmHg 37%
    10:00 +11°C° 0 mm 9 mps 734 mmHg 31%
    11:00 +11°C° 0.1 mm 9 mps 734 mmHg 34%
    12:00 +10°C° 0.1 mm 9 mps 734 mmHg 37%
    13:00 +9°C° 0.1 mm 8 mps 734 mmHg 40%
    14:00 +9°C° 0.1 mm 8 mps 734 mmHg 38%
    15:00 +8°C° 0.1 mm 7 mps 735 mmHg 36%
    16:00 +8°C° 0.1 mm 7 mps 736 mmHg 34%
    17:00 +6°C° 0 mm 7 mps 737 mmHg 40%
    18:00 +5°C° 0 mm 8 mps 738 mmHg 46%
    19:00 +4°C° 0 mm 8 mps 739 mmHg 51%
    20:00 +4°C° 0.3 mm 8 mps 740 mmHg 57%
    21:00 +2°C° 0.3 mm 9 mps 740 mmHg 62%
    22:00 +2°C° 0.3 mm 9 mps 741 mmHg 67%
    23:00 +1°C° 0.2 mm 8 mps 742 mmHg 66%
    Show more